�N����,����,�~����,�C��,���x,�C��,����,���ϕ���,�ő�u�ԕ���,�ő厞����,���˗�,�I�_���x,�n�����x,�ő啗���N��,DTYPE
"19/05/31","00:10",0.0,17.7,72.2,1006.7,281.5,1.0,1.7,319.1,0.00,12.7,20.2,"00:04:00",1
"19/05/31","00:20",0.0,17.6,71.9,1006.9,291.7,0.7,1.2,311.6,0.00,12.5,20.0,"00:12:48",1
"19/05/31","00:30",0.0,17.5,72.4,1007.1,301.6,1.0,1.8,318.7,0.00,12.5,19.9,"00:26:00",1
"19/05/31","00:40",0.0,17.3,73.5,1006.9,302.9,1.3,1.9,320.6,0.00,12.6,19.8,"00:31:12",1
"19/05/31","00:50",0.0,16.8,74.8,1007.1,289.6,0.8,1.0,305.9,0.00,12.3,19.7,"00:40:56",1
"19/05/31","01:00",0.0,16.8,75.8,1007.1,308.6,1.1,1.4,332.7,0.00,12.5,19.7,"00:57:04",1
"19/05/31","01:10",0.0,16.7,75.1,1006.9,306.0,1.0,1.7,315.8,0.00,12.3,19.7,"01:04:32",1
"19/05/31","01:20",0.0,16.6,76.5,1007.1,288.5,1.0,1.4,300.5,0.00,12.5,19.6,"01:16:24",1
"19/05/31","01:30",0.0,16.7,75.7,1006.9,287.4,1.0,1.4,298.6,0.00,12.4,19.6,"01:21:12",1
"19/05/31","01:40",0.0,16.9,74.5,1006.9,291.1,1.1,2.1,322.8,0.00,12.4,19.6,"01:34:40",1
"19/05/31","01:50",0.0,16.9,74.6,1007.1,301.1,1.1,2.1,319.9,0.00,12.4,19.5,"01:47:28",1
"19/05/31","02:00",0.0,16.8,73.8,1006.9,296.9,0.6,1.4,329.7,0.00,12.1,19.4,"01:59:36",1
"19/05/31","02:10",0.0,16.6,75.0,1007.1,296.7,0.6,1.6,310.7,0.00,12.2,19.3,"02:00:02",1
"19/05/31","02:20",0.0,17.1,75.0,1006.7,319.4,1.3,2.0,335.4,0.00,12.7,19.2,"02:18:00",1
"19/05/31","02:30",0.0,16.6,78.1,1006.7,324.9,1.0,1.4,331.0,0.00,12.8,19.2,"02:20:16",1
"19/05/31","02:40",0.0,16.3,79.3,1006.4,279.8,0.6,0.9,283.1,0.00,12.8,19.1,"02:30:16",1
"19/05/31","02:50",0.0,16.2,79.5,1006.4,321.4,0.5,1.2,319.5,0.00,12.7,19.0,"02:47:12",1
"19/05/31","03:00",0.0,16.5,79.8,1006.4,322.8,1.2,1.8,331.9,0.00,13.0,19.2,"02:55:12",1
"19/05/31","03:10",0.0,16.2,81.1,1006.2,305.7,1.0,1.3,323.0,0.00,13.0,19.0,"03:00:40",1
"19/05/31","03:20",0.0,16.0,81.5,1006.2,317.8,0.8,1.3,314.2,0.00,12.9,19.2,"03:17:20",1
"19/05/31","03:30",0.0,16.2,81.5,1006.0,301.7,0.3,0.8,328.4,0.00,13.1,18.9,"03:22:32",1
"19/05/31","03:40",0.0,16.0,81.0,1006.2,300.8,1.3,2.1,318.2,0.00,12.8,18.9,"03:36:16",1
"19/05/31","03:50",0.0,16.2,80.1,1006.0,308.0,1.0,1.7,290.2,0.00,12.8,19.0,"03:42:56",1
"19/05/31","04:00",0.0,16.5,77.9,1006.4,308.1,1.3,2.0,321.3,0.00,12.7,18.9,"03:59:04",1
"19/05/31","04:10",0.0,16.7,76.5,1006.7,310.8,1.1,2.1,325.7,0.00,12.6,18.9,"04:00:40",1
"19/05/31","04:20",0.0,16.7,75.7,1006.4,304.5,1.1,1.4,316.6,0.00,12.4,19.1,"04:13:52",1
"19/05/31","04:30",0.0,16.5,76.1,1006.9,296.6,1.0,1.8,318.1,0.00,12.3,19.0,"04:29:52",1
"19/05/31","04:40",0.0,16.6,75.2,1006.9,295.8,0.8,1.4,317.1,0.00,12.2,19.1,"04:30:16",1
"19/05/31","04:50",0.0,16.8,75.8,1006.7,326.2,1.2,1.9,324.7,0.00,12.5,18.7,"04:41:44",1
"19/05/31","05:00",0.0,16.5,77.1,1006.9,302.8,0.8,1.1,326.3,0.00,12.5,19.0,"04:50:08",1
"19/05/31","05:10",0.0,16.6,77.7,1006.7,322.5,1.1,1.7,333.5,0.00,12.7,18.8,"05:05:20",1
"19/05/31","05:20",0.0,16.7,77.4,1006.4,306.2,0.5,1.0,272.0,0.00,12.8,18.8,"05:19:20",1
"19/05/31","05:30",0.0,16.4,78.3,1006.2,283.0,1.2,1.9,326.9,0.00,12.7,18.7,"05:26:48",1
"19/05/31","05:40",0.0,16.5,78.0,1006.9,286.8,1.0,1.6,319.6,0.00,12.7,18.8,"05:38:16",1
"19/05/31","05:50",0.0,17.0,76.7,1006.7,330.3,1.2,1.8,352.7,0.00,12.9,18.7,"05:45:36",1
"19/05/31","06:00",0.0,16.7,76.8,1006.7,297.0,1.0,1.6,311.8,0.00,12.7,18.8,"05:50:08",1
"19/05/31","06:10",0.0,16.8,76.7,1006.7,319.0,1.1,1.4,320.7,0.00,12.7,19.0,"06:06:40",1
"19/05/31","06:20",0.0,16.8,76.3,1006.4,299.0,1.3,2.6,318.1,0.00,12.6,18.6,"06:12:56",1
"19/05/31","06:30",0.0,17.1,76.2,1006.2,284.0,0.6,1.3,324.2,0.00,12.9,18.6,"06:20:48",1
"19/05/31","06:40",0.0,16.9,76.9,1007.1,280.6,1.0,1.6,252.1,0.00,12.9,18.8,"06:37:12",1
"19/05/31","06:50",0.0,17.4,75.7,1006.7,324.1,0.8,1.3,327.0,0.00,13.1,18.7,"06:49:28",1
"19/05/31","07:00",0.0,17.8,74.8,1006.9,317.4,1.1,1.7,343.3,0.02,13.3,18.7,"06:54:56",1
"19/05/31","07:10",0.0,17.6,75.3,1007.4,290.6,1.0,1.9,318.6,0.02,13.2,18.6,"07:08:56",1
"19/05/31","07:20",0.0,17.7,74.5,1006.9,303.9,1.3,2.9,338.9,0.02,13.2,18.8,"07:11:52",1
"19/05/31","07:30",0.0,18.2,73.7,1006.2,314.3,1.2,2.8,335.3,0.05,13.5,18.8,"07:21:04",1
"19/05/31","07:40",0.0,18.4,73.6,1006.7,253.7,1.1,1.8,234.2,0.06,13.6,18.8,"07:33:04",1
"19/05/31","07:50",0.0,18.6,72.0,1006.7,285.2,0.8,1.4,307.3,0.05,13.5,18.7,"07:44:16",1
"19/05/31","08:00",0.0,19.5,68.0,1006.4,329.0,0.6,1.6,325.6,0.10,13.5,18.9,"07:56:40",1
"19/05/31","08:10",0.0,20.3,65.5,1007.4,331.0,1.3,2.4,336.3,0.09,13.7,19.2,"08:08:56",1
"19/05/31","08:20",0.0,19.9,66.9,1006.7,320.1,0.8,2.1,336.3,0.12,13.6,19.1,"08:11:12",1
"19/05/31","08:30",0.0,20.2,61.5,1006.7,329.1,1.2,2.0,333.9,0.12,12.6,19.1,"08:28:56",1
"19/05/31","08:40",0.0,20.4,62.0,1005.7,343.8,1.2,2.1,334.7,0.13,12.9,19.5,"08:31:20",1
"19/05/31","08:50",0.0,20.9,62.5,1005.2,308.6,1.0,2.7,333.7,0.17,13.5,19.3,"08:42:24",1
"19/05/31","09:00",0.0,20.9,61.2,1005.7,244.9,1.2,3.3,230.7,0.16,13.2,19.5,"08:55:52",1
"19/05/31","09:10",0.0,21.0,60.3,1006.2,237.2,1.3,2.5,260.3,0.16,13.1,19.4,"09:04:08",1
"19/05/31","09:20",0.0,21.2,59.3,1005.7,203.4,1.0,2.5,230.5,0.18,13.0,19.6,"09:10:08",1
"19/05/31","09:30",0.0,21.3,59.7,1005.7,204.2,0.6,1.3,152.1,0.13,13.2,19.7,"09:20:16",1
"19/05/31","09:40",0.0,21.8,56.0,1005.5,303.6,1.0,1.8,316.7,0.21,12.7,19.8,"09:35:04",1
"19/05/31","09:50",0.0,21.8,55.8,1005.5,302.7,0.8,2.0,341.8,0.20,12.6,20.0,"09:41:20",1
"19/05/31","10:00",0.0,21.9,53.0,1005.5,246.5,0.5,1.1,240.4,0.20,11.9,20.2,"09:58:48",1
"19/05/31","10:10",0.0,22.5,54.2,1005.7,264.8,0.8,1.9,201.5,0.27,12.8,20.0,"10:04:00",1
"19/05/31","10:20",0.0,22.9,51.9,1005.5,214.1,0.6,1.7,170.8,0.37,12.5,20.4,"10:12:48",1
"19/05/31","10:30",0.0,22.4,53.6,1005.2,336.2,1.3,2.7,334.5,0.20,12.6,20.5,"10:25:44",1
"19/05/31","10:40",0.0,22.2,53.0,1005.2,8.2,1.1,2.2,353.4,0.12,12.2,20.4,"10:34:32",1
"19/05/31","10:50",0.0,22.8,51.0,1005.5,355.8,0.6,1.7,1.4,0.21,12.2,20.4,"10:40:32",1
"19/05/31","11:00",0.0,23.4,51.3,1005.0,321.7,0.7,1.8,50.9,0.29,12.8,20.7,"10:51:28",1
"19/05/31","11:10",0.0,23.6,54.0,1005.0,95.7,0.7,1.8,182.7,0.30,13.8,20.9,"11:08:40",1
"19/05/31","11:20",0.0,23.5,55.8,1004.5,92.5,0.6,1.4,30.2,0.24,14.2,21.1,"11:11:20",1
"19/05/31","11:30",0.0,23.4,52.5,1004.5,174.6,0.7,2.1,228.9,0.28,13.2,21.1,"11:24:08",1
"19/05/31","11:40",0.0,23.7,54.5,1004.1,154.5,0.7,1.6,149.0,0.28,14.0,21.2,"11:37:44",1
"19/05/31","11:50",0.0,23.6,51.9,1004.1,313.9,0.6,1.7,184.1,0.22,13.2,21.2,"11:40:24",1
"19/05/31","12:00",0.0,23.3,54.8,1004.3,239.8,0.8,2.7,229.5,0.13,13.7,21.4,"11:53:04",1
"19/05/31","12:10",0.0,23.1,57.2,1004.8,180.7,0.6,1.6,203.9,0.15,14.2,21.3,"12:04:08",1
"19/05/31","12:20",0.0,23.1,56.3,1004.5,291.0,0.8,1.7,330.1,0.14,14.0,21.5,"12:18:24",1
"19/05/31","12:30",0.0,23.5,52.8,1004.3,334.5,0.7,1.6,330.7,0.14,13.4,21.4,"12:24:40",1
"19/05/31","12:40",0.0,23.4,55.2,1004.1,332.5,1.0,2.0,347.8,0.16,13.9,21.5,"12:30:02",1
"19/05/31","12:50",0.0,23.2,57.6,1004.3,305.9,0.8,2.2,342.3,0.12,14.4,21.4,"12:40:08",1
"19/05/31","13:00",0.0,23.3,60.3,1004.5,287.8,0.7,1.9,343.4,0.11,15.2,21.5,"12:51:44",1
"19/05/31","13:10",0.0,23.3,59.7,1004.8,302.6,1.0,2.1,335.8,0.12,15.1,21.6,"13:00:08",1
"19/05/31","13:20",0.0,23.3,60.2,1004.5,312.7,1.2,2.7,339.6,0.09,15.2,21.5,"13:13:36",1
"19/05/31","13:30",0.0,23.2,59.7,1004.3,299.7,1.1,2.9,318.5,0.08,15.0,21.6,"13:28:48",1
"19/05/31","13:40",0.0,23.0,60.3,1004.3,310.0,1.1,2.6,332.9,0.07,14.9,21.5,"13:35:04",1
"19/05/31","13:50",0.0,22.9,61.9,1004.3,317.9,1.1,2.1,332.7,0.06,15.3,21.6,"13:42:56",1
"19/05/31","14:00",0.0,22.8,62.7,1004.1,309.0,1.1,2.1,332.7,0.06,15.4,21.4,"13:57:04",1
"19/05/31","14:10",0.0,22.4,63.1,1004.1,321.0,1.6,2.7,333.9,0.05,15.1,21.5,"14:00:56",1
"19/05/31","14:20",0.0,22.4,64.0,1004.3,320.6,1.5,2.5,342.3,0.05,15.3,21.3,"14:10:32",1
"19/05/31","14:30",0.0,22.2,65.4,1003.8,325.4,1.7,2.6,332.1,0.05,15.4,21.3,"14:24:24",1
"19/05/31","14:40",0.0,22.2,66.6,1003.6,318.5,1.5,3.1,351.1,0.06,15.7,21.2,"14:30:40",1
"19/05/31","14:50",0.0,22.0,68.7,1003.8,325.6,1.8,3.3,338.1,0.07,16.0,21.3,"14:41:20",1
"19/05/31","15:00",0.0,21.4,71.9,1003.6,327.8,1.6,2.4,331.8,0.09,16.2,21.3,"14:59:28",1
"19/05/31","15:10",0.0,21.7,74.9,1003.6,286.4,1.0,2.4,332.1,0.18,17.1,21.5,"15:04:48",1
"19/05/31","15:20",0.0,21.7,74.3,1003.6,282.0,0.8,1.6,329.1,0.12,17.0,21.4,"15:10:32",1
"19/05/31","15:30",0.0,21.8,73.3,1003.6,284.1,0.8,1.6,273.2,0.12,16.9,21.3,"15:29:52",1
"19/05/31","15:40",0.0,21.8,72.7,1003.6,290.4,1.1,2.6,318.7,0.11,16.7,21.4,"15:38:40",1
"19/05/31","15:50",0.0,21.8,72.2,1003.6,317.3,1.6,3.7,331.9,0.05,16.6,21.5,"15:43:12",1
"19/05/31","16:00",0.0,21.4,74.2,1003.4,294.2,1.3,2.5,339.6,0.05,16.7,21.3,"15:52:40",1
"19/05/31","16:10",0.0,21.3,75.5,1003.1,292.7,1.1,2.4,324.5,0.04,16.8,21.3,"16:00:32",1
"19/05/31","16:20",0.0,21.1,75.7,1003.4,300.0,1.3,2.7,336.8,0.04,16.7,21.3,"16:17:12",1
"19/05/31","16:30",0.0,21.1,76.1,1002.9,289.1,1.1,2.4,326.0,0.03,16.8,21.4,"16:21:12",1
"19/05/31","16:40",0.0,20.9,76.6,1003.1,303.2,1.0,1.7,340.2,0.03,16.7,21.4,"16:30:56",1
"19/05/31","16:50",0.0,21.0,76.5,1003.1,314.6,1.2,2.8,330.0,0.03,16.8,21.1,"16:42:00",1
"19/05/31","17:00",0.0,20.9,76.8,1003.1,320.6,1.7,3.1,322.6,0.03,16.7,21.2,"16:52:56",1
"19/05/31","17:10",0.0,20.9,77.3,1002.9,328.1,1.5,2.5,321.6,0.04,16.8,21.2,"17:06:08",1
"19/05/31","17:20",0.0,20.8,77.7,1002.6,329.4,2.0,3.7,337.1,0.05,16.8,21.1,"17:19:12",1
"19/05/31","17:30",0.0,20.6,78.2,1002.9,320.0,1.5,2.7,326.7,0.03,16.7,21.1,"17:22:24",1
"19/05/31","17:40",0.0,20.5,78.8,1003.1,324.3,1.5,2.6,331.8,0.02,16.7,21.2,"17:33:20",1
"19/05/31","17:50",0.0,20.4,79.7,1003.4,293.9,1.0,1.7,324.2,0.01,16.8,21.1,"17:49:44",1
"19/05/31","18:00",0.0,20.2,80.3,1003.1,290.8,1.1,2.8,330.9,0.01,16.7,20.9,"17:52:40",1
"19/05/31","18:10",0.0,20.3,80.5,1003.4,312.6,1.2,2.2,336.9,0.01,16.9,21.1,"18:06:40",1
"19/05/31","18:20",0.0,20.2,80.6,1003.4,308.6,1.2,2.1,339.3,0.01,16.8,20.9,"18:10:48",1
"19/05/31","18:30",0.0,20.3,80.6,1003.4,326.8,1.3,2.5,340.5,0.01,16.9,20.9,"18:24:32",1
"19/05/31","18:40",0.0,20.2,80.4,1003.4,355.6,0.8,1.8,340.3,0.01,16.8,20.9,"18:34:24",1
"19/05/31","18:50",0.0,20.0,79.7,1003.6,313.4,0.6,1.2,85.2,0.00,16.4,20.8,"18:49:36",1
"19/05/31","19:00",0.0,20.0,79.4,1003.1,11.8,0.3,0.9,95.7,0.00,16.4,20.7,"18:52:08",1
"19/05/31","19:10",0.0,19.9,79.1,1003.6,309.1,0.6,1.3,346.0,0.00,16.2,20.7,"19:08:08",1
"19/05/31","19:20",0.0,19.8,78.6,1003.8,346.9,0.8,1.4,346.0,0.00,16.0,20.7,"19:13:36",1
"19/05/31","19:30",0.0,19.9,79.0,1003.6,306.3,0.7,1.3,342.1,0.00,16.2,20.7,"19:21:28",1
"19/05/31","19:40",0.0,19.7,80.1,1003.8,304.3,1.1,1.7,321.0,0.00,16.2,20.5,"19:39:36",1
"19/05/31","19:50",0.0,19.5,81.4,1003.8,317.2,1.3,2.4,343.3,0.00,16.3,20.5,"19:48:32",1
"19/05/31","20:00",0.0,19.3,82.7,1004.1,314.3,1.5,2.9,340.4,0.00,16.3,20.6,"19:55:12",1
"19/05/31","20:10",0.0,19.2,83.5,1003.8,319.1,1.2,1.8,318.0,0.00,16.4,20.5,"20:02:56",1
"19/05/31","20:20",0.0,19.1,84.0,1003.8,329.0,1.1,1.8,337.0,0.00,16.4,20.5,"20:18:24",1
"19/05/31","20:30",0.0,19.1,84.6,1004.1,331.3,0.8,1.3,346.6,0.00,16.5,20.4,"20:23:28",1
"19/05/31","20:40",0.0,19.0,85.2,1004.1,337.3,1.0,1.2,312.6,0.00,16.5,20.5,"20:30:24",1
"19/05/31","20:50",0.0,18.8,85.7,1004.1,316.7,0.8,1.4,329.2,0.00,16.4,20.4,"20:49:04",1
"19/05/31","21:00",0.0,18.7,86.4,1004.3,291.2,0.8,1.8,328.6,0.00,16.4,20.2,"20:59:52",1
"19/05/31","21:10",0.0,18.6,86.8,1004.5,309.1,1.0,1.4,329.4,0.00,16.4,20.1,"21:00:24",1
"19/05/31","21:20",0.0,18.6,87.2,1004.8,315.6,1.2,1.8,337.9,0.00,16.5,20.2,"21:19:04",1
"19/05/31","21:30",0.0,18.6,87.2,1004.8,329.4,1.7,3.3,343.7,0.00,16.5,20.3,"21:27:12",1
"19/05/31","21:40",0.0,18.7,87.1,1005.0,320.6,1.5,3.1,320.7,0.00,16.6,19.9,"21:33:36",1
"19/05/31","21:50",0.0,18.7,87.0,1004.8,326.2,1.6,2.7,337.5,0.00,16.5,19.8,"21:49:04",1
"19/05/31","22:00",0.0,18.6,87.1,1004.8,324.3,1.1,2.1,338.0,0.00,16.5,20.0,"21:50:48",1
"19/05/31","22:10",0.0,18.6,87.2,1004.5,331.0,1.3,2.1,334.3,0.00,16.5,19.9,"22:06:40",1
"19/05/31","22:20",0.0,18.6,87.2,1004.5,329.5,1.3,2.7,333.5,0.00,16.5,19.9,"22:11:52",1
"19/05/31","22:30",0.0,18.5,87.2,1004.5,328.3,1.7,3.6,329.4,0.00,16.4,20.1,"22:29:52",1
"19/05/31","22:40",0.0,18.5,87.1,1005.0,321.2,1.7,2.9,318.7,0.00,16.4,19.9,"22:30:02",1
"19/05/31","22:50",0.0,18.5,86.9,1005.2,319.3,1.7,3.1,342.9,0.00,16.3,19.8,"22:42:24",1
"19/05/31","23:00",0.0,18.5,86.8,1005.0,319.0,1.5,2.7,325.5,0.00,16.3,20.0,"22:51:52",1
"19/05/31","23:10",0.0,18.5,86.8,1005.0,328.2,2.1,3.3,332.1,0.00,16.3,19.9,"23:07:52",1
"19/05/31","23:20",0.0,18.5,86.7,1005.0,322.6,2.0,3.2,329.1,0.00,16.3,19.7,"23:12:48",1
"19/05/31","23:30",0.0,18.4,86.9,1005.0,325.4,1.6,2.6,328.8,0.00,16.2,19.9,"23:28:40",1
"19/05/31","23:40",0.0,18.4,87.1,1005.0,329.5,1.7,2.8,338.4,0.00,16.3,19.6,"23:34:56",1
"19/05/31","23:50",0.0,18.3,87.3,1004.8,341.1,1.5,2.6,342.9,0.00,16.2,19.8,"23:46:16",1
"19/05/31","24:00",0.0,18.3,87.6,1005.0,307.6,1.0,1.8,333.6,0.00,16.2,19.8,"23:53:12",1
